User: anonymous   Login
Location: Springfield
(37.2150°N, 93.2980°W)
Time: 03:40:51
(UTC-05:00)
Language:

Cosmos 2366 rocket - Orbit

View from above orbital plane
View from above orbital plane
View from above satellite
View from above satellite

Ground track
Ground track

The orbit data is extracted from the following two-line orbital elements,

1 25893U 99045B   18292.63871368 +.00000023 +00000-0 +76425-5 0  9992
2 25893 082.9306 020.1658 0029179 163.2522 306.4457 13.76517790962000
Epoch (UTC): 19 October 2018 15:19:44
Eccentricity: 0.0029179
inclination: 82.9306°
perigee height: 955 km
apogee height: 998 km
right ascension of ascending node: 20.1658°
argument of perigee: 163.2522°
revolutions per day: 13.76517790
mean anomaly at epoch: 306.4457°
orbit number at epoch: 96200

The dashed part of the orbit path shows where the satellite is in the earth's shadow,  

DLR